Temp
-8 -8 -8 -8 -8 -8 -8 -7 -7 -7 -7 -7 -7 -7 -7 -7 -7 -7 -7 -7 -7 -7 -7 -7 -7 -7 -7 -7 -6 -7 -6 -6 -6 -6 -6 -6 -6 -6 -7 -7 -7 -7 -7 -7 -7
-8 -8 -8 -8 -8 -8 -7 -7 -7 -7 -7 -7 -7 -7 -7 -7 -7 -7 -7 -7 -7 -7 -7 -7 -7 -7 -7 -7 -7 -6 -6 -6 -6 -6 -6 -6 -6 -6 -6 -7 -7 -7 -7 -7 -7
-8 -8 -8 -8 -8 -8 -7 -7 -7 -7 -7 -7 -7 -7 -7 -7 -7 -7 -7 -7 -7 -7 -7 -7 -7 -7 -7 -7 -7 -7 -7 -7 -7 -6 -7 -7 -7 -7 -7 -8 -7 -8 -8 -8 -8
-8 -8 -8 -8 -7 -7 -7 -7 -7 -7 -7 -7 -7 -7 -7 -7 -7 -7 -7 -7 -7 -7 -7 -7 -7 -7 -7 -7 -7 -7 -7 -7 -7 -7 -8 -8 -8 -8 -8 -8 -8 -8 -8 -8 -8
-8 -8 -8 -8 -8 -8 -7 -8 -8 -8 -8 -7 -7 -7 -7 -7 -7 -8 -8 -8 -8 -8 -8 -8 -8 -8 -8 -8 -8 -8 -9 -9 -9 -9 -9 -9 -9 -9 -9 -9 -9 -9 -9 -9 -9
-8 -8 -8 -8 -8 -8 -8 -8 -8 -8 -8 -8 -8 -8 -8 -8 -8 -8 -8 -8 -8 -8 -8 -8 -9 -9 -9 -9 -9 -9 -9 -9 -9 -9 -9 -9 -9 -9 -9 -9 -9 -9 -9 -9 -9
-8 -8 -8 -8 -8 -8 -8 -8 -8 -8 -8 -8 -8 -8 -8 -8 -8 -8 -8 -8 -8 -8 -9 -9 -9 -9 -10 -10 -10 -10 -10 -10 -10 -10 -10 -10 -10 -10 -10 -10 -10 -9 -10 -10 -10
-9 -8 -8 -8 -8 -8 -8 -8 -8 -8 -8 -8 -8 -8 -8 -8 -9 -8 -9 -9 -9 -9 -9 -10 -9 -9 -10 -10 -10 -10 -10 -11 -11 -11 -11 -11 -10 -11 -11 -10 -10 -10 -10 -10 -10
-9 -9 -9 -9 -9 -9 -9 -9 -9 -9 -8 -8 -8 -8 -8 -8 -8 -9 -9 -9 -9 -9 -9 -9 -9 -10 -10 -10 -10 -10 -10 -10 -11 -11 -11 -11 -11 -11 -11 -10 -10 -10 -10 -10 -11
-9 -9 -9 -9 -9 -9 -9 -9 -9 -9 -9 -9 -9 -9 -9 -9 -9 -9 -9 -9 -9 -9 -10 -10 -10 -10 -10 -10 -10 -10 -10 -10 -11 -11 -11 -11 -11 -11 -12 -11 -11 -11 -11 -11 -11
-9 -9 -9 -9 -9 -9 -9 -9 -9 -9 -9 -9 -9 -9 -9 -9 -9 -9 -9 -9 -9 -10 -10 -10 -10 -10 -10 -10 -10 -10 -10 -10 -11 -11 -11 -11 -11 -12 -12 -12 -12 -12 -12 -12 -12
-10 -10 -10 -10 -9 -9 -9 -10 -10 -9 -9 -10 -9 -9 -9 -9 -9 -9 -9 -9 -9 -10 -10 -10 -10 -10 -10 -10 -10 -11 -10 -11 -11 -11 -11 -11 -12 -12 -13 -13 -13 -13 -13 -12 -13
-10 -10 -10 -10 -10 -10 -10 -10 -10 -10 -10 -10 -10 -10 -10 -10 -10 -10 -10 -10 -10 -10 -10 -10 -11 -11 -11 -11 -11 -11 -11 -11 -11 -11 -12 -12 -12 -12 -13 -13 -13 -13 -13 -13 -13
-10 -10 -10 -10 -10 -10 -10 -10 -10 -10 -10 -10 -10 -10 -10 -10 -10 -10 -10 -10 -10 -11 -11 -11 -11 -11 -11 -11 -11 -12 -12 -12 -12 -12 -12 -12 -11 -12 -13 -14 -14 -13 -14 -14 -13
-11 -10 -10 -10 -10 -10 -10 -10 -10 -10 -10 -10 -10 -10 -10 -10 -10 -10 -10 -11 -11 -11 -11 -11 -11 -11 -12 -12 -12 -13 -13 -12 -12 -12 -12 -13 -13 -12 -13 -14 -14 -14 -14 -14 -14
-11 -11 -11 -11 -10 -11 -10 -10 -10 -10 -11 -11 -11 -11 -11 -11 -11 -11 -11 -11 -11 -11 -11 -11 -11 -12 -12 -12 -13 -13 -13 -13 -13 -13 -13 -13 -13 -13 -14 -14 -14 -14 -14 -14 -14
-11 -11 -11 -11 -11 -11 -11 -10 -11 -11 -11 -11 -11 -11 -11 -11 -11 -11 -11 -11 -11 -11 -11 -11 -12 -12 -13 -13 -13 -14 -14 -14 -14 -14 -14 -14 -14 -14 -15 -15 -15 -15 -15 -15 -15
-12 -12 -11 -11 -11 -11 -11 -10 -10 -11 -11 -11 -11 -11 -11 -11 -11 -11 -11 -11 -11 -11 -12 -12 -12 -13 -13 -14 -14 -14 -15 -15 -15 -14 -14 -15 -15 -15 -15 -15 -15 -16 -16 -16 -15
-12 -12 -12 -11 -11 -11 -10 -10 -10 -11 -11 -11 -11 -11 -11 -11 -11 -11 -12 -12 -13 -13 -13 -13 -13 -13 -14 -15 -15 -15 -16 -16 -16 -16 -16 -15 -15 -16 -16 -16 -16 -16 -17 -17 -17
-12 -12 -12 -11 -11 -11 -10 -10 -10 -10 -10 -10 -11 -11 -11 -11 -12 -12 -12 -13 -13 -14 -14 -14 -13 -14 -14 -14 -15 -15 -16 -16 -17 -17 -17 -16 -16 -16 -16 -18 -17 -18 -17 -17 -18
-12 -12 -12 -11 -11 -11 -10 -10 -10 -10 -11 -11 -11 -12 -12 -11 -12 -12 -13 -13 -14 -14 -14 -14 -14 -14 -14 -15 -15 -16 -16 -17 -17 -18 -18 -18 -16 -17 -18 -19 -19 -18 -18 -19 -19
-12 -12 -12 -11 -11 -11 -11 -11 -11 -11 -11 -11 -11 -11 -11 -12 -12 -12 -13 -14 -14 -14 -14 -14 -14 -14 -15 -15 -16 -16 -17 -18 -18 -18 -18 -19 -18 -18 -19 -19 -19 -19 -19 -19 -20
-13 -12 -12 -12 -11 -11 -11 -11 -11 -11 -11 -11 -11 -12 -12 -12 -12 -13 -14 -14 -15 -15 -15 -15 -15 -15 -15 -16 -17 -17 -18 -19 -19 -19 -19 -20 -18 -19 -20 -19 -19 -19 -19 -19 -20
-13 -12 -12 -12 -11 -11 -11 -12 -11 -11 -11 -12 -12 -12 -12 -13 -13 -14 -14 -15 -15 -15 -16 -16 -15 -16 -17 -17 -18 -18 -19 -19 -19 -19 -20 -20 -20 -20 -20 -20 -20 -20 -19 -19 -20
-13 -12 -12 -12 -11 -11 -12 -12 -12 -12 -12 -12 -12 -13 -13 -13 -14 -15 -15 -15 -16 -16 -16 -16 -16 -16 -17 -18 -19 -19 -19 -19 -19 -20 -21 -20 -20 -20 -20 -20 -20 -20 -20 -20 -20
-13 -12 -12 -12 -11 -11 -11 -12 -12 -12 -13 -13 -13 -13 -14 -14 -14 -14 -15 -15 -15 -16 -16 -16 -16 -16 -17 -19 -19 -19 -20 -20 -21 -21 -21 -21 -20 -20 -20 -20 -20 -20 -20 -20 -20
-12 -13 -12 -12 -11 -11 -11 -12 -12 -13 -13 -13 -13 -13 -14 -15 -15 -15 -15 -15 -16 -16 -16 -16 -17 -17 -18 -19 -19 -19 -20 -21 -21 -22 -21 -21 -21 -21 -21 -21 -20 -21 -20 -20 -19
Height
5845 5845 5844 5845 5845 5845 5845 5845 5845 5844 5843 5843 5842 5842 5841 5841 5841 5842 5842 5843 5844 5845 5845 5847 5848 5849 5851 5853 5854 5854 5856 5856 5856 5857 5857 5856 5854 5855 5854 5855 5854 5855 5857 5857 5857
5845 5845 5844 5844 5844 5844 5843 5843 5843 5843 5843 5842 5842 5841 5840 5841 5841 5841 5842 5842 5842 5842 5843 5845 5846 5846 5848 5848 5849 5850 5850 5850 5850 5849 5850 5849 5849 5849 5849 5849 5849 5850 5849 5849 5849
5845 5845 5844 5843 5843 5842 5842 5842 5842 5842 5842 5842 5842 5841 5841 5841 5842 5842 5842 5842 5842 5842 5843 5842 5843 5843 5843 5844 5845 5844 5844 5844 5844 5844 5845 5845 5844 5844 5844 5842 5841 5842 5840 5840 5840
5845 5845 5844 5843 5843 5842 5842 5842 5842 5842 5842 5842 5842 5841 5841 5841 5843 5841 5841 5841 5841 5841 5841 5841 5841 5840 5840 5840 5840 5839 5838 5838 5837 5836 5838 5838 5836 5836 5835 5835 5833 5833 5835 5834 5833
5846 5845 5844 5844 5843 5842 5842 5841 5841 5841 5841 5841 5841 5841 5841 5841 5841 5840 5839 5839 5840 5839 5839 5838 5838 5838 5838 5838 5837 5835 5834 5833 5832 5833 5832 5833 5833 5831 5828 5828 5827 5826 5826 5826 5825
5845 5845 5844 5844 5843 5842 5842 5841 5841 5840 5840 5840 5840 5840 5840 5840 5839 5838 5838 5838 5837 5837 5836 5834 5834 5834 5833 5833 5832 5831 5830 5829 5828 5826 5825 5826 5825 5822 5823 5823 5821 5819 5818 5817 5817
5844 5844 5843 5843 5843 5842 5842 5841 5841 5840 5840 5839 5839 5839 5838 5838 5837 5836 5835 5835 5834 5832 5831 5830 5830 5829 5829 5828 5828 5827 5826 5825 5824 5822 5821 5821 5820 5816 5816 5815 5815 5816 5813 5809 5805
5843 5842 5842 5842 5842 5842 5841 5841 5840 5839 5839 5838 5838 5838 5837 5837 5836 5834 5834 5833 5832 5830 5829 5829 5828 5827 5826 5825 5824 5822 5821 5819 5817 5816 5813 5814 5818 5809 5806 5807 5808 5806 5803 5801 5799
5842 5841 5841 5840 5840 5840 5840 5839 5839 5838 5837 5836 5836 5836 5835 5834 5834 5833 5832 5830 5829 5828 5827 5826 5824 5824 5823 5820 5818 5817 5815 5813 5813 5810 5807 5805 5805 5803 5799 5798 5797 5796 5795 5793 5790
5841 5840 5839 5839 5838 5838 5838 5837 5837 5836 5835 5834 5834 5834 5833 5831 5830 5830 5829 5828 5827 5826 5824 5822 5819 5817 5815 5814 5812 5810 5809 5808 5805 5802 5798 5797 5792 5790 5788 5785 5783 5781 5778 5777 5775
5839 5838 5837 5837 5836 5835 5835 5835 5836 5834 5832 5832 5830 5829 5828 5828 5826 5826 5825 5824 5823 5821 5818 5816 5813 5811 5809 5808 5806 5804 5801 5799 5797 5793 5789 5789 5784 5779 5778 5774 5772 5769 5767 5764 5759
5837 5836 5835 5834 5833 5832 5832 5831 5831 5831 5829 5828 5827 5826 5825 5824 5823 5822 5822 5821 5819 5817 5815 5812 5810 5808 5805 5802 5800 5796 5793 5791 5789 5785 5780 5779 5778 5772 5770 5766 5761 5758 5756 5753 5749
5836 5834 5833 5832 5831 5830 5829 5828 5827 5826 5826 5826 5824 5823 5822 5822 5821 5819 5818 5816 5815 5813 5810 5808 5806 5802 5799 5796 5792 5789 5783 5781 5778 5777 5774 5768 5768 5765 5763 5757 5753 5748 5743 5740 5738
5834 5833 5831 5830 5830 5827 5826 5825 5824 5823 5822 5822 5820 5819 5817 5818 5817 5815 5814 5813 5811 5809 5807 5803 5800 5797 5793 5789 5785 5782 5777 5771 5768 5764 5762 5763 5754 5754 5748 5747 5745 5740 5735 5732 5728
5832 5831 5829 5827 5826 5825 5824 5822 5820 5819 5818 5818 5816 5814 5814 5815 5813 5812 5810 5808 5806 5804 5803 5799 5795 5790 5787 5782 5777 5772 5768 5763 5758 5754 5750 5750 5749 5743 5736 5736 5732 5730 5727 5723 5720
5829 5828 5826 5825 5823 5821 5820 5818 5817 5817 5814 5813 5811 5811 5811 5810 5809 5809 5806 5804 5801 5799 5795 5791 5786 5783 5779 5774 5769 5763 5758 5753 5748 5743 5741 5738 5735 5735 5729 5721 5721 5720 5717 5713 5710
5826 5825 5823 5821 5819 5817 5815 5814 5813 5811 5811 5809 5807 5807 5807 5805 5804 5803 5801 5798 5794 5789 5787 5783 5778 5774 5770 5765 5760 5755 5748 5741 5739 5735 5731 5726 5721 5723 5718 5713 5707 5705 5704 5702 5699
5822 5821 5819 5817 5815 5812 5810 5809 5806 5805 5804 5803 5803 5802 5801 5800 5799 5796 5793 5788 5785 5781 5777 5771 5769 5766 5761 5756 5750 5745 5739 5732 5726 5724 5720 5717 5711 5711 5707 5702 5697 5692 5690 5688 5686
5818 5817 5815 5813 5810 5807 5806 5804 5801 5800 5799 5798 5798 5797 5797 5795 5792 5789 5785 5782 5777 5773 5768 5761 5757 5756 5748 5744 5740 5735 5730 5724 5715 5713 5708 5707 5702 5699 5696 5688 5684 5680 5676 5674 5674
5814 5813 5811 5808 5806 5804 5802 5800 5798 5796 5795 5794 5793 5793 5791 5789 5786 5781 5778 5774 5769 5764 5758 5752 5744 5748 5739 5736 5730 5723 5717 5710 5704 5698 5693 5694 5690 5690 5683 5673 5669 5665 5663 5662 5662
5810 5808 5806 5804 5802 5800 5798 5797 5795 5794 5793 5791 5789 5787 5786 5783 5779 5775 5772 5766 5761 5756 5749 5742 5736 5736 5731 5728 5720 5714 5706 5699 5693 5687 5679 5674 5679 5678 5672 5662 5658 5655 5654 5652 5650
5805 5803 5801 5799 5798 5797 5795 5793 5792 5790 5788 5787 5785 5782 5779 5775 5771 5768 5764 5757 5753 5747 5740 5734 5728 5726 5722 5718 5709 5703 5697 5690 5681 5677 5668 5662 5663 5665 5659 5653 5650 5648 5645 5642 5640
5800 5798 5797 5795 5793 5792 5790 5789 5787 5785 5784 5781 5778 5775 5772 5768 5764 5760 5755 5750 5745 5738 5731 5725 5717 5712 5709 5706 5697 5689 5683 5677 5669 5664 5661 5653 5653 5650 5647 5644 5642 5641 5638 5635 5633
5796 5792 5790 5789 5788 5787 5785 5784 5780 5779 5778 5776 5773 5769 5764 5760 5755 5750 5745 5740 5736 5729 5723 5715 5709 5704 5695 5691 5682 5677 5674 5666 5658 5652 5649 5646 5640 5642 5637 5636 5635 5634 5632 5629 5626
5789 5786 5784 5782 5781 5781 5780 5778 5776 5772 5771 5768 5765 5760 5757 5752 5748 5744 5738 5733 5729 5721 5714 5707 5701 5692 5684 5679 5672 5666 5663 5658 5649 5646 5639 5640 5634 5631 5629 5629 5628 5627 5626 5624 5622
5781 5779 5777 5775 5773 5772 5771 5770 5768 5766 5765 5761 5756 5752 5747 5743 5738 5733 5728 5723 5718 5712 5704 5696 5688 5680 5675 5669 5662 5659 5651 5644 5640 5637 5632 5628 5628 5624 5623 5621 5620 5620 5618 5617 5616
5772 5770 5767 5766 5765 5764 5762 5760 5759 5757 5756 5752 5748 5745 5740 5736 5730 5725 5719 5713 5706 5700 5693 5684 5676 5669 5665 5659 5653 5650 5641 5636 5633 5629 5625 5622 5620 5618 5615 5614 5614 5612 5609 5608 5607
Wind_Speed
3 2 1 3 4 4 4 4 5 6 7 6 4 3 4 3 4 5 6 7 8 9 12 16 18 20 21 28 29 28 26 27 29 29 30 32 34 35 37 36 38 39 39 41 43
3 2 1 2 4 6 7 7 5 4 3 1 2 1 3 3 4 4 4 5 7 10 11 13 14 16 18 23 28 30 29 29 29 32 33 37 38 39 41 41 42 42 44 45 45
4 3 3 2 1 0 1 2 2 1 1 3 4 6 7 7 6 5 4 4 4 5 7 9 10 12 15 17 20 23 27 30 32 34 33 34 35 37 37 39 43 41 46 48 49
3 3 2 2 2 2 1 2 3 3 4 5 5 5 5 5 4 4 3 2 2 4 6 8 8 10 12 14 14 17 21 24 27 30 28 26 31 33 34 35 41 44 42 43 45
4 2 1 1 2 1 1 3 4 4 3 3 2 2 3 3 2 2 1 2 3 5 3 3 5 7 8 9 12 15 18 21 23 23 25 25 25 25 30 31 31 33 31 31 34
3 3 1 0 0 1 2 3 5 4 2 2 2 1 2 2 2 1 2 4 5 6 7 8 9 10 11 12 12 13 17 21 24 26 27 21 23 27 26 26 28 33 35 38 38
3 1 0 0 1 1 1 2 4 4 3 3 3 4 5 5 6 6 6 7 9 9 10 11 13 15 15 16 16 16 18 20 22 24 26 24 22 30 29 32 32 34 35 39 42
4 3 3 3 2 2 2 3 4 5 6 6 7 7 7 7 9 10 7 8 9 10 10 11 13 15 16 17 19 19 20 22 26 27 31 31 24 34 36 39 36 35 38 41 39
5 4 4 4 5 5 5 5 6 7 8 9 9 9 10 11 11 11 10 11 11 11 12 14 16 17 18 19 21 22 24 26 27 29 33 35 34 36 39 40 37 38 37 36 36
6 6 6 7 7 8 9 9 8 9 10 11 12 13 13 14 14 12 12 12 13 13 13 15 17 19 21 22 24 26 26 25 27 30 36 35 38 37 37 41 40 39 39 36 37
6 7 8 9 9 10 11 11 12 12 13 14 15 16 16 16 16 16 15 15 16 17 19 19 22 23 25 27 28 30 32 32 32 34 38 36 39 40 38 41 41 42 40 38 38
9 10 11 11 12 12 12 13 14 15 15 16 17 17 18 18 18 18 18 19 18 17 19 21 23 26 28 29 31 33 36 37 37 38 40 38 36 40 39 40 43 43 42 40 38
9 11 12 12 12 13 14 15 16 18 18 18 19 19 21 20 18 20 20 20 20 19 20 21 25 28 29 32 35 35 40 41 43 40 39 43 41 41 39 38 40 43 45 43 42
10 11 11 12 12 13 14 15 16 19 21 22 21 23 22 20 21 21 22 22 22 22 22 24 27 28 32 35 38 37 40 44 45 46 45 42 48 43 44 40 37 42 43 43 44
10 9 10 11 13 14 15 15 15 17 22 20 20 20 20 21 23 23 23 25 26 27 28 29 31 34 34 38 40 42 43 46 47 48 49 46 45 47 48 39 39 42 43 42 44
16 17 16 17 18 18 19 19 18 19 21 20 19 20 21 23 23 23 27 28 30 32 34 36 37 39 40 40 42 44 47 49 49 49 50 50 49 48 46 48 43 41 43 45 44
17 16 17 17 18 20 20 20 20 20 18 19 20 21 20 25 26 26 28 32 35 38 40 41 42 43 44 44 44 47 48 50 50 49 49 49 51 45 45 45 48 48 46 45 46
17 16 17 16 17 19 20 20 20 18 16 18 19 20 21 24 27 28 32 36 40 43 45 48 47 45 45 45 48 46 46 47 48 49 50 48 50 49 46 47 49 52 50 50 48
18 19 17 19 20 19 16 15 15 13 14 16 18 19 22 26 29 31 35 39 42 44 46 50 51 48 49 47 45 43 42 45 48 48 49 50 50 47 51 53 49 47 48 44 39
21 19 20 21 21 14 12 10 10 10 12 14 16 20 23 26 30 35 38 41 43 44 45 48 52 45 47 43 43 46 49 49 48 52 52 50 53 52 49 49 47 42 40 39 35
22 22 21 22 19 14 14 12 11 11 12 14 17 21 24 28 32 36 39 41 40 42 45 47 49 47 45 45 48 48 50 51 52 52 56 58 56 49 41 40 39 39 39 38 38
24 23 23 24 19 16 15 15 14 15 17 19 21 25 28 31 34 37 38 38 40 40 42 46 49 48 48 48 49 51 50 49 53 53 54 54 51 41 37 39 35 29 32 34 35
26 28 28 28 22 20 20 18 19 19 20 23 27 29 32 34 37 38 37 38 37 40 45 49 53 53 55 53 53 55 53 52 52 51 50 46 46 39 32 33 30 29 25 28 26
27 29 28 26 24 22 21 21 25 26 26 29 31 33 36 37 39 40 39 40 39 43 46 49 52 53 56 55 54 53 47 46 47 49 42 41 39 31 29 28 30 30 35 27 23
28 29 28 28 25 23 23 24 27 31 32 32 34 37 39 39 39 36 38 41 40 44 46 51 54 55 55 48 46 45 40 39 44 40 35 30 36 32 27 27 27 26 27 23 23
32 30 30 29 28 26 28 30 31 33 32 33 35 38 40 41 41 40 43 43 45 45 51 56 57 56 50 43 41 39 39 39 33 31 40 36 28 24 28 30 27 28 28 27 27
36 35 34 33 31 31 32 32 33 33 33 35 38 39 40 40 40 42 41 43 47 51 54 56 53 51 47 41 43 38 35 29 29 27 28 24 24 24 26 28 30 29 32 34 33
Wind_Direction
19 9 275 249 262 265 269 290 298 309 320 319 309 268 225 218 219 221 222 231 235 240 234 229 235 238 246 241 248 265 259 254 254 254 256 257 257 257 259 259 259 260 260 263 264
39 25 338 283 263 261 268 281 291 302 312 331 87 153 190 186 202 219 243 249 250 251 242 245 245 249 250 245 245 252 258 259 254 254 252 256 257 259 262 264 264 265 266 266 264
56 67 61 53 44 146 226 222 221 219 149 140 114 120 130 133 130 140 163 185 236 263 275 279 272 266 261 260 260 262 263 264 265 266 263 263 266 266 266 270 269 268 269 268 271
70 71 78 67 100 116 149 184 166 146 133 127 123 110 134 138 149 126 121 141 200 232 245 247 260 268 273 274 274 278 274 273 272 272 278 275 265 264 264 262 265 270 273 274 274
43 73 102 86 125 149 149 167 163 141 143 158 155 129 146 155 136 109 61 350 322 291 275 312 319 310 294 293 291 286 284 281 279 279 273 270 269 267 266 268 271 273 278 277 278
1 35 51 42 167 176 196 196 194 189 189 184 206 264 288 273 277 281 306 311 304 323 337 341 331 322 320 309 305 296 281 277 276 279 279 280 275 265 264 270 275 277 280 281 277
288 331 167 167 38 23 314 239 227 234 238 236 251 277 288 297 285 293 309 312 317 331 333 337 326 324 324 319 311 297 288 279 273 268 265 267 269 272 265 267 273 279 282 281 283
260 253 255 250 252 280 300 276 266 267 265 265 264 262 264 266 263 271 280 288 309 328 321 307 311 323 329 321 314 311 305 296 289 281 275 268 258 266 269 269 275 281 282 288 287
264 250 254 254 259 262 264 264 265 266 262 261 262 264 263 268 260 269 281 295 307 313 303 308 321 325 324 318 319 318 312 306 297 287 279 278 274 265 270 274 278 279 284 283 282
277 269 267 267 271 268 267 266 262 261 265 262 265 271 273 275 269 264 266 280 287 293 289 300 309 313 317 318 315 313 313 312 302 289 284 281 279 279 285 288 290 291 293 293 296
287 275 271 276 281 281 276 272 268 264 266 263 271 272 282 277 273 281 285 282 285 290 301 310 310 313 312 311 308 308 309 307 302 297 294 289 288 288 292 292 291 293 294 298 303
292 282 277 280 281 281 279 272 269 268 267 268 274 274 283 274 276 283 283 282 288 294 296 298 299 303 305 305 304 304 304 304 302 299 298 297 292 289 294 291 292 294 294 296 296
305 299 291 283 282 286 286 282 278 275 270 267 273 276 281 269 277 280 280 283 288 289 293 295 302 303 302 300 300 302 302 302 301 297 294 295 296 290 287 287 290 292 294 296 297
298 306 310 303 292 288 292 293 288 280 276 276 276 279 270 267 280 282 283 285 285 289 293 295 296 294 296 297 298 298 297 298 298 297 296 294 294 296 291 295 292 287 290 293 295
289 291 299 304 298 294 300 300 297 292 284 283 281 277 273 274 281 285 286 286 284 288 293 292 293 295 295 296 295 296 298 297 297 296 296 295 293 293 296 299 290 287 289 288 292
294 297 291 291 291 293 293 295 294 292 287 283 280 280 280 280 282 286 286 284 288 293 296 296 295 295 296 296 295 296 298 298 298 296 296 296 295 291 293 293 292 290 289 289 289
296 300 301 299 296 293 294 295 292 289 287 282 278 281 282 285 285 287 290 295 297 298 298 296 297 297 299 300 301 301 300 298 295 295 295 296 294 298 296 297 297 296 293 290 291
294 299 306 311 307 301 294 298 296 292 279 281 279 279 285 290 295 298 300 299 299 299 299 298 299 303 302 304 304 304 303 301 298 297 295 296 296 298 299 298 297 296 295 294 292
297 302 302 306 310 307 301 300 304 286 281 280 283 287 293 298 300 299 297 297 298 298 299 301 303 305 307 307 307 305 301 298 296 295 293 295 296 296 300 299 299 294 291 288 285
300 299 303 306 308 304 306 308 311 304 298 300 296 297 298 296 295 293 295 298 299 301 302 302 302 306 307 309 308 306 304 302 301 300 299 296 294 301 302 303 297 292 288 284 272
299 300 301 304 296 288 300 308 313 317 316 303 298 294 293 295 297 298 301 301 301 302 303 303 303 308 309 309 307 304 302 301 300 302 303 300 299 306 303 297 292 292 295 293 286
301 298 299 306 294 277 285 297 296 301 297 299 301 301 302 301 301 300 301 301 304 303 301 301 301 304 307 309 305 302 300 300 300 300 298 301 302 306 303 292 292 292 291 288 288
299 299 298 298 289 281 276 286 291 295 298 302 305 305 302 301 303 305 307 307 308 305 305 307 307 309 308 308 306 304 303 302 300 299 301 302 307 307 296 288 298 304 304 296 288
295 297 296 292 283 281 277 284 290 295 297 303 303 303 303 304 306 310 310 309 308 305 305 305 307 308 306 307 304 302 303 302 298 298 304 302 305 297 284 279 289 288 297 301 299
301 302 298 294 287 277 271 276 280 286 296 302 302 301 303 304 305 305 303 305 306 305 305 305 307 306 306 307 305 307 308 298 295 298 292 306 308 301 283 281 286 283 291 294 293
300 301 297 294 290 283 273 270 275 283 292 296 298 300 302 305 306 308 307 307 308 308 308 309 309 309 310 311 309 311 307 305 302 295 303 300 302 279 277 293 284 290 288 288 287
294 297 295 293 290 287 281 278 278 286 292 297 299 301 301 304 306 308 309 308 309 311 311 311 310 310 315 315 313 314 311 308 303 301 306 302 300 301 289 287 283 293 292 290 287